Wind_Speed
130 131 132 132 132 132 133 133 133 132 132 132 132 133 133 133 133 133 133 134 134 134 135 135 135 136 136 136 136 136 136 136 137 137 137 137 137 137 137 137 136 136 136 135 135 135 134 134 133 133 132 131 131 130 130 129 128 128 127 126 125 124 123 121 120 118 116 114 112 110 108 106 104 102 101 99 97 95 94 92 91 90 89 88 87 86
133 133 134 134 134 134 135 135 135 134 134 134 135 135 135 135 135 135 136 136 136 136 136 136 137 137 137 137 137 137 137 137 137 137 137 137 137 137 137 137 136 136 136 135 135 135 134 134 133 133 132 132 131 130 130 129 128 127 127 126 124 123 122 121 119 117 115 113 110 108 106 104 103 101 99 97 95 94 92 91 90 89 88 87 86 86
136 136 136 137 137 137 137 137 137 137 137 136 137 137 137 137 137 137 137 137 137 137 137 137 137 137 137 137 137 137 137 137 137 137 137 137 137 137 137 136 136 136 136 135 135 135 134 134 133 133 132 131 131 130 129 129 128 127 126 125 124 122 121 119 117 115 113 111 109 107 105 103 101 99 97 96 94 93 92 90 89 88 88 87 86 86
138 138 139 139 139 139 139 139 139 139 138 138 138 138 138 138 138 138 138 138 138 138 138 138 137 137 137 137 137 137 137 137 137 137 137 137 137 137 137 136 136 136 136 135 135 135 134 134 133 132 132 131 131 130 129 128 127 126 125 124 123 121 119 117 115 113 111 109 107 105 103 101 99 98 96 95 93 92 91 90 89 88 87 87 86 85
140 140 140 140 141 141 141 140 140 140 139 139 139 139 138 138 138 138 138 138 138 138 138 138 138 137 137 137 137 137 137 137 137 137 137 137 137 137 136 136 136 136 136 135 135 135 134 133 133 132 132 131 130 129 129 128 127 125 124 123 121 120 118 115 113 111 109 107 105 103 101 99 98 96 95 94 92 91 91 90 89 88 87 86 86 85
141 141 141 141 141 141 141 141 140 140 140 139 139 139 139 138 138 138 138 138 138 138 138 138 137 137 137 137 137 137 137 137 137 137 137 137 137 136 136 136 136 136 136 135 135 134 134 133 132 132 131 131 130 129 128 127 126 124 123 121 120 118 115 113 111 109 106 105 103 101 99 98 96 95 94 93 92 91 90 90 89 88 87 86 85 84
142 142 142 141 141 141 141 141 140 140 139 139 139 139 139 139 138 138 137 137 137 137 137 138 138 138 138 137 137 137 137 137 137 137 137 137 136 136 136 136 136 136 135 135 134 134 133 133 132 131 131 130 129 128 127 126 125 123 121 120 117 115 113 111 108 106 104 102 101 99 98 96 95 94 93 92 92 91 90 89 88 88 87 86 84 83
143 142 142 142 141 141 141 141 140 140 140 139 139 139 139 139 138 138 138 137 137 137 137 137 138 138 138 137 137 137 137 137 136 136 136 136 136 136 136 136 136 135 135 134 134 133 133 132 131 131 130 129 128 127 126 125 123 121 119 117 115 113 110 108 106 104 102 100 99 98 96 95 94 93 93 92 91 90 90 89 88 87 86 85 84 83
143 143 142 142 141 141 141 141 141 140 140 140 140 139 139 139 139 138 138 138 138 137 137 137 137 138 138 137 137 137 136 136 136 136 136 136 136 136 135 135 135 135 134 134 133 133 132 131 131 130 129 128 127 126 124 123 121 119 117 114 112 110 107 105 103 102 100 99 97 96 95 94 94 93 92 92 91 90 89 88 87 86 85 84 83 82
142 142 142 141 141 141 141 141 141 141 140 140 140 139 139 139 138 138 138 138 138 138 137 137 137 137 138 137 137 137 136 136 136 136 136 135 135 135 135 134 134 134 133 133 132 132 131 130 130 129 128 127 125 124 122 120 118 116 114 111 109 107 105 103 101 100 98 97 96 95 95 94 93 93 92 91 90 89 88 87 86 85 84 83 81 80
141 141 141 140 140 140 140 140 140 140 140 140 139 139 139 139 138 138 138 138 138 138 137 137 137 137 137 137 137 136 136 135 135 135 135 135 134 134 134 133 133 133 132 132 131 131 130 129 128 127 126 125 123 121 120 118 115 113 111 109 106 105 103 101 100 98 97 96 95 95 94 93 93 92 91 90 89 88 87 86 85 84 83 81 80 79
141 140 140 140 139 139 139 139 139 139 139 139 139 139 139 138 138 137 137 137 138 137 137 137 137 137 136 136 136 136 135 135 134 134 134 134 133 133 132 132 132 131 131 130 130 129 128 127 126 125 124 122 120 119 116 114 112 110 108 106 104 103 101 100 98 97 97 96 95 94 94 93 92 91 90 89 88 87 86 85 84 82 81 80 79 78
141 140 139 139 139 139 139 139 139 138 138 138 138 138 138 137 137 137 137 137 137 137 137 136 136 136 136 135 135 134 134 134 133 133 133 132 132 131 131 130 130 130 129 129 128 127 126 125 124 122 121 119 117 115 113 111 109 107 105 104 102 101 100 99 98 97 96 95 95 94 93 92 91 90 89 88 87 86 84 83 82 81 80 78 77 76
141 140 140 139 139 139 139 138 138 138 138 137 137 137 137 137 136 136 136 136 136 136 136 135 135 135 135 134 133 133 132 132 132 132 132 131 131 130 129 129 128 128 127 127 126 125 124 122 121 119 117 116 114 112 110 108 106 105 103 102 101 99 98 98 97 96 95 95 94 93 92 91 90 89 88 87 85 84 83 82 80 79 78 77 76 75
141 141 141 140 140 140 139 138 138 138 138 137 137 137 136 136 136 136 136 136 136 136 135 135 135 134 134 133 133 132 131 131 131 131 130 130 129 128 128 127 126 126 125 124 124 122 121 119 118 116 114 112 110 108 107 105 104 102 101 100 99 98 97 97 96 95 95 94 93 92 91 90 89 88 86 85 84 83 81 80 79 78 76 76 75 75
141 141 141 141 141 140 140 139 139 138 138 138 137 137 137 137 137 136 136 136 136 135 135 135 134 134 134 133 131 131 130 129 129 129 129 129 128 127 126 125 124 123 123 122 121 119 118 116 115 113 111 110 108 106 104 103 102 101 99 99 98 97 96 95 95 94 94 93 92 90 89 88 87 86 84 83 82 81 80 78 77 76 76 75 75 74
141 141 141 142 142 141 141 140 140 139 139 139 138 138 138 138 137 137 137 136 136 135 135 135 134 134 134 133 131 130 128 128 128 127 127 127 126 125 123 122 122 121 120 119 118 117 115 114 112 110 109 107 106 104 103 101 100 99 98 97 96 96 95 94 94 93 92 91 90 88 87 86 85 84 83 81 80 79 78 77 76 75 75 75 75 75
141 141 141 142 142 142 141 141 140 140 140 140 140 139 139 138 138 137 137 137 136 136 135 134 134 133 133 133 131 129 127 126 126 125 125 125 124 123 121 120 119 118 118 117 116 114 113 111 110 108 107 105 104 102 101 100 99 98 97 96 95 94 94 93 92 91 90 89 87 86 85 84 83 82 81 80 79 78 77 76 75 75 75 75 75 75
141 141 141 142 142 142 142 141 141 141 141 141 140 140 140 139 138 138 138 137 136 136 135 134 133 133 132 132 130 128 126 125 124 124 123 123 122 120 119 118 117 116 115 115 113 112 110 109 108 106 105 104 102 101 100 99 97 96 95 94 94 93 92 91 90 88 87 86 85 84 83 82 81 80 79 78 77 77 76 76 75 75 75 75 76 76
142 142 142 142 142 142 142 142 142 141 141 141 140 140 140 140 139 138 138 137 136 135 134 134 133 132 131 130 129 127 125 124 123 122 121 120 120 118 117 116 115 114 113 113 111 110 108 107 106 105 103 102 101 99 98 97 96 95 94 93 92 91 89 88 87 86 84 83 82 81 80 80 79 78 77 77 76 76 75 75 75 75 76 76 76 76
142 142 142 142 142 142 142 142 142 142 141 141 140 140 140 139 139 138 137 136 135 135 133 133 132 131 129 129 128 126 124 122 121 120 119 118 117 116 114 113 113 112 112 111 109 108 107 106 105 103 102 101 99 98 96 95 94 93 92 91 89 88 87 85 84 83 82 81 80 79 78 78 77 77 76 76 75 75 75 75 75 76 76 76 76 77
142 142 142 142 142 142 142 142 142 141 141 140 140 140 139 139 138 138 137 135 134 133 132 131 130 129 128 127 126 124 122 121 119 118 116 116 115 114 112 111 110 110 110 109 107 106 105 104 103 102 101 99 97 96 95 93 92 91 89 88 87 85 84 82 81 80 79 78 78 77 77 76 76 75 75 75 75 75 75 75 76 76 76 76 77 77
141 141 141 141 141 141 141 141 141 140 140 139 139 139 138 137 137 136 135 134 133 132 131 129 128 127 126 125 124 122 120 118 116 115 114 113 113 111 110 109 108 108 108 106 105 104 103 102 101 100 99 97 95 94 92 91 90 88 86 85 83 82 81 80 79 78 77 77 76 76 75 75 75 75 75 75 75 75 75 76 76 76 76 77 77 78
139 139 140 140 139 139 139 139 139 139 138 138 137 137 136 135 134 134 132 131 130 129 128 127 126 125 124 123 121 120 118 116 114 112 111 110 109 108 107 106 106 106 105 104 103 102 101 100 99 98 96 95 93 91 90 88 87 85 83 82 81 79 78 77 77 76 76 75 75 74 74 74 74 74 74 75 75 75 76 76 76 77 77 78 78 79
136 137 137 137 137 137 137 137 137 136 136 135 135 134 133 132 131 130 129 128 127 126 125 125 124 123 121 120 119 117 115 112 110 109 108 107 106 105 104 104 103 103 102 101 100 99 98 98 96 95 93 92 90 88 87 85 83 82 80 79 78 77 76 76 75 75 74 74 73 73 73 73 74 74 75 75 75 76 76 77 77 77 78 78 78 79
132 133 133 133 133 133 133 133 133 133 132 132 131 130 129 129 128 127 126 125 124 123 122 121 121 120 118 117 115 114 111 109 107 105 104 103 103 102 101 100 100 99 99 97 96 96 95 94 93 92 90 88 87 85 83 82 80 79 78 77 76 75 75 74 73 73 73 73 73 73 73 74 74 74 75 75 76 76 77 77 77 78 78 78 78 79
127 128 128 129 129 129 129 129 129 128 128 127 126 126 125 124 124 123 123 121 120 119 118 118 117 115 114 112 111 109 107 105 103 101 99 99 99 99 98 97 96 95 94 93 92 92 91 90 89 88 86 85 83 81 80 79 78 77 76 75 74 74 73 72 72 72 72 72 73 73 74 74 74 75 75 76 76 77 77 77 78 78 78 78 78 79
122 122 123 123 123 123 123 123 123 123 122 122 121 120 119 119 119 119 118 116 115 114 113 113 111 110 109 108 106 105 103 101 99 97 95 94 95 95 94 92 91 90 89 89 88 87 86 85 84 83 82 81 80 78 77 76 75 75 74 73 73 72 72 71 71 71 72 72 73 74 74 74 75 75 76 76 77 77 77 78 78 78 78 78 78 78
116 116 116 117 117 117 117 117 117 116 116 115 115 114 113 113 113 113 112 110 109 108 108 107 105 104 103 102 101 100 98 96 94 91 90 90 90 90 89 88 86 85 84 83 82 81 81 80 80 79 78 78 77 76 75 74 74 73 72 72 71 71 71 71 71 72 72 73 74 74 75 75 75 76 76 76 77 77 78 78 78 78 77 77 77 77
109 109 110 110 110 110 110 110 110 109 109 109 108 108 107 106 106 106 105 104 103 102 102 101 99 98 97 96 95 94 93 91 88 86 85 85 85 85 83 82 81 79 78 77 76 76 76 76 76 75 75 75 75 74 74 73 72 71 71 71 71 71 71 71 72 72 73 74 74 75 75 75 76 76 76 77 77 77 78 78 77 77 77 77 76 76
102 102 102 103 103 103 103 103 103 102 102 101 101 101 100 99 99 98 98 97 96 95 95 94 93 92 91 90 89 89 87 85 82 80 80 80 80 79 78 77 75 74 72 71 70 70 71 72 72 72 73 73 73 73 72 71 71 71 70 70 71 71 71 72 72 73 74 74 75 75 76 76 76 77 77 77 77 78 78 78 77 77 76 76 75 75
95 95 95 96 96 96 96 95 95 95 95 94 94 93 93 92 92 91 90 90 89 88 88 87 86 85 84 84 83 82 81 79 77 75 74 74 73 73 72 71 70 69 67 66 66 66 67 68 69 70 71 71 71 71 71 71 70 70 70 71 71 72 72 73 73 74 74 75 76 76 77 77 77 77 77 77 78 78 78 77 77 76 76 75 74 73
89 89 89 89 89 89 89 88 88 88 87 87 86 86 85 85 84 83 83 82 82 81 81 80 79 79 78 77 77 76 75 73 71 69 68 67 67 67 66 66 65 64 64 63 63 63 64 65 66 67 68 69 70 71 71 71 71 71 71 71 72 73 73 73 74 75 75 76 77 77 78 78 78 78 78 78 78 78 78 77 77 76 76 75 74 73
83 83 83 83 82 82 81 81 81 80 80 80 79 78 78 77 77 76 76 75 75 74 74 73 73 72 72 71 70 69 68 66 64 63 62 61 61 61 61 62 62 62 61 61 61 61 62 62 63 64 66 67 69 70 71 71 71 72 72 72 73 73 74 74 75 76 77 77 78 78 79 79 79 79 79 79 78 78 78 78 77 77 76 75 74 74
77 77 77 76 75 75 74 74 73 73 73 72 72 71 71 70 70 69 69 68 68 68 67 67 66 66 65 65 64 63 62 60 58 57 56 56 57 58 58 59 59 59 59 60 60 60 60 61 62 63 65 66 68 69 70 71 71 72 72 72 73 74 75 75 76 77 78 78 79 79 79 79 79 79 79 79 79 79 78 78 78 78 77 76 75 75
71 70 70 69 69 68 68 67 67 66 66 66 65 65 64 64 63 63 63 62 62 61 61 61 60 60 59 58 58 57 56 55 54 53 53 53 54 55 56 57 57 57 58 58 59 59 60 61 62 63 64 66 67 68 69 70 71 72 72 73 73 74 75 76 77 77 78 79 79 79 79 79 79 79 79 79 79 79 79 79 79 78 78 77 77 76
65 64 63 63 62 62 61 61 60 60 60 59 59 59 58 58 57 57 57 56 56 55 55 55 54 54 53 53 52 52 52 51 51 51 51 51 52 53 54 55 55 56 56 57 58 59 60 61 62 63 64 65 66 68 69 70 71 71 72 73 74 75 76 76 77 78 78 79 79 79 79 79 79 79 78 78 78 78 78 78 78 78 78 78 77 77
58 58 57 56 56 56 55 55 55 54 54 54 53 53 53 52 52 51 51 51 50 50 50 49 49 49 48 48 48 48 49 49 49 49 49 50 50 51 52 53 54 55 56 57 58 59 60 61 62 63 64 65 66 67 69 69 71 71 72 73 74 75 76 77 78 78 79 79 79 79 79 78 78 78 77 77 77 78 78 78 78 78 78 78 78 78
52 52 52 51 51 50 50 50 50 49 49 48 48 48 47 47 47 46 46 45 45 45 45 45 45 45 45 45 46 46 47 47 48 48 48 49 49 50 51 53 54 55 56 57 58 59 61 62 62 63 64 65 67 68 69 70 71 71 72 73 74 75 76 77 78 78 79 79 78 78 78 77 76 76 76 76 76 77 77 77 78 78 78 78 78 78
47 47 47 46 46 46 45 45 45 44 44 44 43 43 42 42 42 41 41 40 40 41 41 42 42 43 43 44 44 44 45 45 46 47 47 48 49 50 51 53 54 55 57 58 59 60 61 62 63 64 65 66 67 68 69 70 71 71 71 72 73 74 76 77 77 78 78 77 77 77 76 75 75 75 75 75 75 76 76 77 78 78 78 78 79 79
43 42 42 42 41 41 41 40 40 40 39 39 38 38 38 37 37 37 37 37 38 38 39 40 41 42 42 42 43 43 44 44 45 46 47 48 49 50 52 53 54 56 57 59 60 61 62 63 64 65 65 66 67 68 69 70 70 70 70 71 72 73 74 76 76 76 76 76 75 74 74 73 73 73 73 74 74 75 76 77 77 78 78 78 78 79
38 38 37 37 37 37 36 36 35 35 35 34 34 33 33 33 34 34 35 36 36 37 38 39 40 41 41 42 42 42 43 44 45 46 47 49 50 51 52 54 55 57 58 60 61 62 63 64 65 66 67 67 67 68 68 69 69 69 69 70 71 72 73 73 74 74 74 74 73 72 72 71 71 72 72 73 74 75 76 76 77 78 78 78 78 78
34 34 33 33 32 32 32 31 31 31 30 30 30 31 31 32 33 33 34 35 36 36 37 38 39 40 41 42 43 43 44 44 45 47 48 49 50 52 53 55 56 57 59 60 62 63 65 65 66 67 67 67 67 67 68 68 68 68 68 68 69 69 70 71 71 71 72 72 71 71 70 70 70 70 71 72 74 75 76 77 77 78 78 78 78 78
30 30 29 29 28 28 28 28 27 28 28 28 29 30 31 31 32 33 34 34 35 36 37 38 39 40 41 43 43 44 45 45 46 47 48 50 51 52 54 55 57 58 60 61 63 64 66 66 67 67 67 67 67 67 66 66 66 66 66 66 67 67 68 69 69 70 70 70 70 69 69 69 69 70 71 72 73 74 76 77 77 78 78 78 78 78
26 26 25 25 25 25 25 25 26 26 27 28 29 29 30 31 32 32 33 34 35 36 37 38 39 40 42 43 44 45 46 47 48 48 49 50 52 53 55 56 58 59 61 62 63 64 66 66 67 67 66 66 66 65 65 64 64 64 64 64 65 66 67 67 68 68 68 68 68 68 68 68 68 69 70 71 72 74 75 76 77 77 78 77 77 77
23 22 22 23 23 23 24 25 26 26 27 28 28 29 30 31 31 32 33 34 35 36 37 38 39 40 42 43 45 46 47 48 49 50 51 52 53 54 56 57 59 60 61 62 63 64 65 65 66 66 66 65 65 64 63 62 62 62 62 63 64 65 66 66 66 67 67 67 67 67 67 67 68 68 69 70 71 73 74 76 77 77 77 77 77 77
20 21 21 22 23 24 24 25 26 26 27 28 28 29 30 30 31 32 33 34 35 36 37 38 39 41 43 44 46 47 49 50 52 52 53 54 55 56 57 58 59 60 61 62 63 63 64 64 64 64 64 63 63 62 61 60 60 60 61 61 63 64 65 65 66 66 66 66 66 66 66 66 67 67 68 69 70 72 74 75 76 77 77 76 76 76
20 21 22 22 23 24 24 25 26 26 27 28 28 29 29 30 31 32 33 34 35 36 37 39 40 42 44 45 47 49 50 52 54 55 56 56 57 57 58 59 59 60 61 62 62 63 63 63 63 62 62 61 60 60 59 59 59 59 60 61 62 63 64 64 65 65 65 66 66 66 66 66 66 66 67 68 69 70 72 74 75 76 76 76 76 75
21 21 22 23 23 24 24 25 26 26 27 27 28 28 29 30 30 31 32 34 35 37 38 40 42 44 46 47 49 51 52 54 55 56 57 57 58 58 59 60 60 61 61 61 61 62 62 62 61 61 60 59 59 58 58 58 58 58 59 60 61 62 63 63 64 64 65 65 65 65 65 65 65 65 66 67 68 69 71 72 74 75 76 76 75 74
21 22 22 23 23 24 24 25 25 26 26 27 27 28 28 29 30 32 33 35 37 38 40 42 44 46 48 50 51 52 54 55 56 56 57 57 58 59 60 60 61 61 61 61 61 61 61 61 61 60 59 58 58 58 58 57 57 57 58 60 60 61 62 62 63 63 64 64 64 64 64 65 65 65 66 66 67 68 69 71 72 74 75 75 74 73
21 22 22 22 23 23 23 24 24 25 25 26 27 27 28 30 31 33 34 36 38 40 42 44 46 48 50 51 52 54 54 55 56 57 57 57 58 59 60 60 60 60 60 60 60 60 60 61 61 61 60 59 58 58 57 57 57 57 58 59 60 61 61 62 62 62 63 63 64 64 64 64 65 65 65 66 67 67 68 69 71 72 73 73 72 71
Wind_Direction
275 275 276 276 277 277 278 278 279 279 280 280 281 281 281 282 282 283 283 283 284 284 285 285 285 286 286 287 287 287 288 288 288 289 289 289 289 290 290 291 291 292 292 292 293 293 294 294 295 295 296 296 296 297 297 298 298 298 299 299 299 300 300 300 300 300 300 300 299 299 299 298 298 297 297 296 296 296 295 295 294 294 294 293 293 293
275 275 276 276 277 277 278 278 279 279 280 280 280 281 281 282 282 282 283 283 283 284 284 285 285 286 286 286 287 287 287 288 288 288 289 289 289 290 290 291 291 292 292 292 293 293 294 294 294 295 295 296 296 297 297 297 298 298 299 299 299 300 300 300 300 300 299 299 299 298 298 298 297 297 296 296 295 295 295 294 294 294 293 293 293 292
275 275 275 276 276 277 277 278 278 279 279 280 280 281 281 281 282 282 282 283 283 284 284 285 285 285 286 286 286 287 287 287 288 288 288 289 289 289 290 290 291 291 292 292 292 293 293 294 294 295 295 296 296 296 297 297 298 298 298 299 299 299 299 299 299 299 299 299 298 298 297 297 296 296 295 295 295 295 294 294 294 293 293 293 292 292
275 275 275 276 276 277 277 278 278 279 279 280 280 280 281 281 281 282 282 283 283 283 284 284 285 285 285 286 286 286 287 287 287 288 288 288 289 289 290 290 291 291 291 292 292 293 293 294 294 295 295 295 296 296 297 297 297 298 298 299 299 299 299 299 299 298 298 298 297 297 296 296 296 295 295 295 294 294 294 293 293 293 293 292 292 292
275 275 276 276 276 277 277 278 278 279 279 279 280 280 280 281 281 281 282 282 283 283 283 284 284 284 285 285 285 286 286 286 287 287 288 288 288 289 289 290 290 291 291 291 292 292 293 293 294 294 295 295 295 296 296 297 297 298 298 298 298 298 298 298 298 298 297 297 296 296 295 295 295 295 294 294 294 294 293 293 293 292 292 292 292 291
275 275 276 276 276 277 277 278 278 278 279 279 279 279 280 280 280 281 281 282 282 283 283 283 284 284 284 284 285 285 285 286 286 287 287 288 288 288 289 289 290 290 291 291 292 292 293 293 294 294 294 295 295 296 296 297 297 297 297 298 298 298 297 297 297 297 296 296 295 295 295 294 294 294 294 294 293 293 293 293 292 292 292 292 291 291
275 275 275 276 276 277 277 277 278 278 278 279 279 279 279 280 280 280 281 281 282 282 282 282 283 283 283 284 284 284 285 285 286 286 287 287 288 288 288 289 289 290 290 291 291 292 292 293 293 294 294 294 295 295 296 296 297 297 297 297 297 297 297 296 296 296 295 295 295 294 294 294 294 293 293 293 293 293 292 292 292 292 292 291 291 290
274 275 275 275 276 276 276 277 277 277 277 278 278 278 279 279 279 280 280 280 281 281 281 282 282 282 283 283 283 284 284 285 285 286 286 287 287 288 288 288 289 289 290 290 291 291 292 292 293 293 294 294 295 295 295 296 296 296 296 296 296 296 296 295 295 295 294 294 294 294 293 293 293 293 293 293 292 292 292 292 292 291 291 291 291 290
274 274 274 275 275 275 276 276 276 276 277 277 277 278 278 279 279 279 279 280 280 280 281 281 282 282 282 282 283 283 284 284 285 285 286 286 287 287 287 288 288 289 290 290 291 291 292 292 292 293 293 294 294 295 295 295 295 296 296 296 295 295 295 295 294 294 294 293 293 293 293 293 293 292 292 292 292 292 292 292 291 291 291 291 290 290
273 273 274 274 274 275 275 276 276 276 276 277 277 277 278 278 278 279 279 279 280 280 280 281 281 281 282 282 282 283 283 284 284 285 285 286 286 287 287 288 288 289 289 290 290 291 291 292 292 293 293 294 294 294 295 295 295 295 295 295 295 294 294 294 293 293 293 293 293 293 293 292 292 292 292 292 292 292 292 291 291 291 291 290 290 290
273 273 273 274 274 275 275 275 276 276 276 277 277 277 277 278 278 279 279 279 279 280 280 280 281 281 281 282 282 283 283 284 284 284 285 285 286 286 287 287 288 288 289 289 290 290 291 291 292 292 293 293 294 294 294 294 294 294 294 294 294 294 293 293 293 293 293 293 292 292 292 292 292 292 292 292 292 292 291 291 291 291 290 290 290 289
273 273 273 274 274 274 275 275 275 276 276 277 277 277 278 278 278 279 279 279 279 280 280 280 280 281 281 282 282 283 283 283 284 284 285 285 286 286 287 287 288 288 289 289 290 290 291 291 292 292 293 293 293 293 294 294 294 294 294 293 293 293 293 293 293 292 292 292 292 292 292 292 292 292 292 292 291 291 291 291 290 290 290 290 289 289
273 274 274 274 274 275 275 275 276 276 276 277 277 278 278 278 278 279 279 279 279 280 280 280 281 281 281 282 282 283 283 283 284 284 285 285 286 286 287 287 288 288 289 289 290 290 291 291 291 292 292 292 293 293 293 293 293 293 293 293 293 292 292 292 292 292 292 292 292 292 292 292 292 292 292 291 291 291 291 290 290 290 290 289 289 289
275 275 275 275 275 275 276 276 276 277 277 277 277 278 278 279 279 279 279 280 280 280 280 281 281 281 282 282 282 283 283 284 284 285 285 285 286 286 287 287 288 288 289 289 290 290 290 291 291 292 292 292 292 292 292 292 292 292 292 292 292 292 292 292 292 292 292 292 292 292 292 292 292 292 291 291 291 291 290 290 290 290 289 289 289 288
276 276 276 276 276 276 276 277 277 277 278 278 278 278 279 279 279 280 280 280 280 280 281 281 281 282 282 282 282 283 283 284 284 285 285 286 286 287 287 288 288 288 289 289 290 290 290 291 291 291 291 292 292 292 292 292 292 291 291 291 291 292 292 292 292 292 292 292 292 292 292 292 292 291 291 291 291 290 290 290 289 289 289 289 288 288
276 276 277 277 277 277 277 278 278 278 278 278 279 279 279 279 280 280 280 280 281 281 281 281 282 282 282 282 283 283 284 284 285 285 286 286 286 287 287 288 288 289 289 289 290 290 290 291 291 291 291 291 291 291 291 291 291 291 291 291 291 291 291 291 291 291 292 292 292 292 292 291 291 291 291 290 290 290 290 289 289 289 288 288 288 288
275 276 276 277 277 277 277 278 278 278 278 279 279 279 279 279 280 280 280 280 281 281 281 282 282 282 283 283 283 283 284 285 285 286 286 286 287 287 288 288 289 289 289 290 290 290 290 290 291 291 291 291 291 291 291 290 290 290 291 291 291 291 291 291 291 291 291 291 291 291 291 291 291 291 290 290 290 289 289 289 289 288 288 288 288 288
274 275 275 276 276 277 277 277 278 278 278 278 279 279 279 279 279 280 280 280 281 281 281 282 282 282 283 283 284 284 285 285 286 286 286 287 287 288 288 289 289 289 289 290 290 290 290 290 290 290 290 290 290 290 290 290 290 290 290 291 291 291 291 291 291 291 291 291 291 291 291 291 290 290 290 289 289 289 289 289 289 289 289 289 289 289
273 274 274 275 275 276 276 276 277 277 277 278 278 278 279 279 279 280 280 280 281 281 281 282 282 283 283 284 284 285 285 286 286 287 287 287 287 288 288 289 289 289 289 289 290 290 290 290 290 290 290 290 290 290 290 290 290 290 290 290 291 291 291 291 291 291 291 291 291 290 290 290 290 289 289 289 289 289 289 289 289 289 289 289 290 290
273 273 273 274 274 275 275 275 276 276 277 277 277 278 278 279 279 279 280 280 281 281 282 282 283 283 283 284 285 285 285 286 286 287 287 287 288 288 288 289 289 289 289 289 289 289 289 289 289 289 289 289 289 289 289 290 290 290 290 290 290 290 291 291 291 290 290 290 290 290 289 289 289 289 289 289 289 289 289 289 289 290 290 290 290 290
272 272 273 273 273 274 274 275 275 275 276 276 277 277 278 278 279 279 280 280 281 281 282 282 283 283 284 284 285 285 285 286 286 287 287 287 288 288 288 289 289 289 289 289 289 289 289 289 289 289 289 289 289 289 289 290 290 290 290 290 290 290 290 290 290 290 289 289 289 289 288 288 288 288 288 288 289 289 289 289 290 290 290 290 290 290
271 272 272 272 273 273 274 274 275 275 275 276 276 277 277 278 278 279 279 280 281 281 282 282 283 283 284 284 285 285 285 286 286 286 287 287 288 288 288 288 288 288 288 288 288 289 289 289 289 289 289 289 289 289 289 290 290 290 290 290 290 290 290 289 289 289 288 288 288 288 288 288 288 288 288 288 289 289 289 289 290 290 290 290 290 290
271 271 272 272 272 273 273 274 274 275 275 276 276 276 277 278 278 279 279 280 281 281 282 282 283 283 283 284 284 284 285 285 286 286 287 287 287 287 287 288 288 288 288 288 288 288 288 288 288 288 289 289 289 289 289 290 290 290 290 290 289 289 289 288 288 288 288 287 287 287 288 288 288 288 288 289 289 289 289 290 290 290 290 290 291 290
270 271 271 272 272 272 273 273 274 274 275 275 276 276 277 277 278 279 279 280 280 281 281 282 282 283 283 283 284 284 284 285 285 286 286 286 287 287 287 287 287 287 287 287 288 288 288 288 288 288 289 289 289 289 289 289 289 289 289 289 288 288 288 288 287 287 287 287 288 288 288 288 288 289 289 289 289 290 290 290 290 290 290 291 290 290
270 271 271 271 272 272 273 273 274 274 275 275 276 276 277 277 278 279 279 280 280 281 281 282 282 282 283 283 283 284 284 284 285 285 286 286 286 286 286 286 287 287 287 287 287 288 288 288 288 288 289 289 289 289 289 289 289 289 288 288 287 287 287 287 287 287 288 288 288 288 288 289 289 289 289 289 290 290 290 290 290 290 290 290 290 290
270 270 271 271 272 272 272 273 273 274 274 275 275 276 277 277 278 279 279 280 280 280 281 281 282 282 282 283 283 283 284 284 284 285 285 285 285 285 285 286 286 286 286 287 287 287 288 288 288 288 288 289 289 289 288 288 288 287 287 287 287 287 287 287 288 288 288 288 288 289 289 289 289 289 289 290 290 290 290 290 290 290 289 289 289 289
270 270 271 271 271 272 272 273 273 274 274 275 276 276 277 278 278 279 279 279 280 280 281 281 281 282 282 283 283 283 283 283 284 284 284 285 285 285 285 285 285 286 286 286 287 287 287 288 288 288 288 288 288 288 287 287 287 287 287 287 287 287 288 288 288 289 289 289 289 289 289 289 289 289 290 290 290 290 290 289 289 289 289 289 289 288
270 270 270 271 271 272 272 273 274 274 275 275 276 277 277 278 278 278 279 279 280 280 281 281 281 282 282 282 282 283 283 283 283 284 284 284 284 284 284 285 285 285 286 286 287 287 287 287 288 287 287 287 287 286 286 286 286 287 287 287 288 288 288 289 289 289 289 289 289 289 289 289 290 290 290 290 290 290 289 289 289 289 289 289 289 288
270 270 271 271 272 272 273 274 274 275 275 276 276 277 277 278 278 278 279 279 280 280 280 281 281 281 281 282 282 282 282 283 283 283 284 284 284 284 284 284 285 285 286 286 287 287 287 287 287 286 286 286 286 286 286 286 287 287 288 288 288 289 289 289 289 289 289 289 289 289 290 290 290 290 290 290 290 290 290 290 289 289 289 289 289 288
270 271 272 272 273 273 274 274 275 275 276 276 277 277 277 278 278 278 279 279 280 280 280 280 281 281 281 281 282 282 282 282 283 283 284 284 284 284 284 284 285 285 286 286 286 286 286 286 285 285 285 285 285 286 286 287 287 288 288 289 289 289 289 289 289 290 290 290 290 290 290 291 291 291 291 291 290 290 290 290 290 290 289 289 289 289
272 272 273 273 273 274 274 275 275 275 276 276 276 277 277 277 278 278 279 279 279 279 280 280 280 280 281 281 281 281 282 282 283 283 283 284 284 284 284 285 285 285 285 285 285 285 284 284 284 285 285 285 286 286 287 288 288 288 289 289 289 290 290 290 290 291 291 291 291 291 291 292 292 292 292 292 291 291 291 291 291 290 290 290 290 289
272 273 273 273 274 274 274 275 275 275 276 276 277 277 277 277 278 278 278 279 279 279 279 280 280 280 280 280 281 281 282 282 283 283 284 284 284 284 284 284 284 284 283 283 283 283 283 283 284 285 286 286 287 288 288 289 289 289 290 290 291 291 291 292 292 292 292 293 293 293 293 293 293 293 293 293 293 293 292 292 292 292 291 291 291 291
273 273 273 273 273 274 274 275 275 276 276 276 277 277 277 277 278 278 278 278 278 279 279 279 280 280 280 280 281 281 282 283 283 284 284 284 284 283 283 283 283 282 282 282 282 282 282 283 284 285 286 287 288 289 289 290 290 291 291 292 292 292 293 293 294 294 294 294 294 294 294 294 294 294 294 294 294 294 294 294 294 293 293 293 292 292
272 273 273 273 274 274 275 275 276 276 276 277 277 277 277 277 278 278 278 278 278 279 279 279 279 280 280 281 281 282 282 283 283 284 284 283 283 282 282 282 281 281 281 282 282 282 283 283 284 285 286 287 288 289 290 290 291 292 292 293 293 294 294 295 295 295 295 295 295 296 296 296 296 296 296 296 296 296 296 295 295 295 294 294 294 294
272 273 274 274 275 275 276 276 276 277 277 277 277 277 277 277 277 277 278 278 278 279 279 279 280 280 281 281 282 282 283 283 283 283 282 282 281 281 281 281 281 282 282 283 283 284 284 284 285 285 286 287 288 289 290 291 292 292 293 294 294 295 295 296 296 296 296 296 296 296 296 297 297 297 297 297 297 297 297 297 296 296 296 295 295 295
274 274 275 275 276 276 276 276 276 277 276 277 277 277 277 277 277 278 278 278 279 279 279 280 280 281 281 282 282 282 282 282 282 281 280 280 280 280 281 281 282 283 283 284 284 285 285 285 286 286 287 287 288 289 290 291 292 293 294 294 295 296 296 296 296 297 297 297 297 297 297 297 297 298 298 298 298 298 298 297 297 297 296 296 296 296
275 275 276 276 276 276 276 276 276 276 276 277 277 277 277 277 278 278 279 279 279 280 280 280 281 281 281 282 282 282 281 281 280 280 280 280 281 281 282 283 283 284 285 285 285 285 286 286 287 287 288 288 289 290 291 292 293 293 294 295 296 296 296 297 297 297 297 297 297 297 297 297 298 298 298 298 298 298 297 297 297 297 297 297 297 297
275 276 276 276 276 276 276 276 276 276 277 277 277 278 278 278 279 279 280 280 280 281 281 281 281 281 281 281 280 280 280 280 281 281 281 282 282 283 283 284 285 285 285 286 286 286 287 287 288 288 289 290 290 291 292 292 293 294 295 296 296 297 297 297 297 297 297 297 297 297 297 297 298 298 298 298 298 297 297 297 297 297 297 297 297 297
275 275 275 276 276 276 276 277 277 277 277 278 278 279 279 279 280 280 280 281 281 281 281 280 280 280 279 279 279 280 281 281 282 283 283 284 284 284 285 285 285 286 286 286 287 287 288 288 289 289 290 291 291 292 292 293 294 295 296 296 296 297 297 297 296 296 296 296 296 297 297 297 297 297 297 297 297 297 297 297 297 297 297 297 297 298
275 275 275 276 276 276 277 277 278 278 279 279 279 280 280 280 281 281 281 281 280 280 280 279 279 279 279 280 280 281 282 283 284 284 285 285 285 285 286 286 286 287 287 288 288 288 289 289 290 290 291 291 292 293 293 294 294 295 296 296 296 296 296 296 296 296 296 296 296 296 296 297 297 297 297 297 297 297 297 297 297 297 297 297 298 298
274 275 276 276 277 277 278 278 279 279 280 280 281 281 281 281 281 281 280 279 279 279 279 279 279 280 281 281 282 283 284 284 285 285 286 286 286 287 287 287 287 288 288 289 289 289 290 290 290 291 291 292 292 293 293 294 295 295 296 296 295 296 295 295 295 295 295 295 295 296 296 296 297 297 297 297 297 297 297 297 297 297 297 297 298 298
275 275 276 277 277 278 279 279 280 280 281 281 281 281 280 280 279 278 278 278 278 279 280 280 281 282 283 283 284 284 285 285 286 286 286 287 287 287 288 288 288 289 289 289 290 290 290 291 291 292 292 292 293 293 294 294 295 295 295 295 295 295 295 294 294 294 295 295 295 295 296 296 297 297 297 297 297 297 297 297 297 297 297 298 298 298
274 275 276 277 278 279 279 280 280 281 281 280 280 279 278 278 278 278 278 279 280 280 282 283 283 284 284 285 285 285 285 286 286 286 287 287 287 288 288 289 289 289 290 290 290 291 291 292 292 292 293 293 293 294 294 295 295 295 295 295 295 295 294 294 294 294 295 295 295 296 296 297 297 297 297 297 297 297 297 297 297 297 297 298 298 298
274 275 277 278 278 279 280 280 279 279 278 278 277 277 277 278 279 279 280 281 282 283 284 284 285 285 286 286 286 286 286 286 286 286 287 287 288 288 289 289 289 290 290 290 291 291 292 292 292 293 293 294 294 294 295 295 295 295 295 295 295 295 294 294 294 295 295 295 296 296 297 297 298 298 298 298 298 298 298 297 297 297 298 298 298 299
275 276 277 278 278 278 278 277 277 276 276 276 277 278 279 280 281 282 283 284 284 285 286 286 287 287 287 287 287 287 287 287 287 287 287 288 288 289 289 290 290 290 291 291 291 292 292 293 293 293 294 294 295 295 295 296 296 296 296 296 295 295 295 295 295 295 295 296 297 297 297 298 298 298 298 298 298 298 298 298 298 298 298 298 299 299
275 276 276 276 276 275 275 275 275 276 277 278 279 280 281 283 283 284 285 286 286 287 287 288 288 288 288 288 289 289 289 289 289 289 289 289 289 290 290 290 291 291 292 292 292 293 293 293 294 294 295 295 296 296 296 297 297 297 296 296 296 296 295 295 296 296 296 297 297 297 298 298 298 298 299 299 298 298 298 298 298 298 298 298 299 299
274 274 273 273 273 273 274 275 276 278 279 280 282 283 284 285 286 287 287 288 288 289 289 289 289 289 289 289 290 290 290 290 290 290 290 291 291 291 292 292 292 293 293 293 294 294 294 294 295 295 296 296 297 297 297 297 297 297 297 297 297 297 296 297 297 297 297 297 298 298 298 298 299 299 299 299 299 299 298 298 298 298 298 299 299 299
271 271 271 272 273 274 275 277 279 280 281 282 284 285 286 287 288 289 289 289 290 290 290 290 290 290 290 290 290 291 291 291 291 292 292 293 293 293 294 294 294 294 295 295 295 295 296 296 296 296 296 297 297 298 298 298 298 298 298 298 297 297 297 298 298 298 298 298 298 299 299 299 299 299 299 299 299 299 299 299 299 299 299 299 300 300
269 270 271 273 274 276 278 279 281 282 283 285 286 287 288 289 289 290 290 290 290 290 290 290 290 291 291 291 291 291 291 291 292 293 293 294 295 296 296 296 296 297 297 297 297 297 297 297 297 297 297 298 298 298 299 299 299 299 299 298 298 298 298 299 299 299 299 299 299 299 300 300 300 300 300 300 300 299 299 299 299 299 299 300 300 301
270 271 273 275 276 278 280 281 283 285 286 287 288 289 290 290 290 290 290 290 290 291 291 291 291 291 291 291 291 291 292 292 293 294 295 296 297 297 298 298 298 299 299 299 299 299 300 299 299 299 299 299 299 299 299 300 300 300 300 300 300 300 300 300 300 300 300 300 300 300 301 301 301 301 301 300 300 300 300 299 299 300 300 300 301 302
271 273 275 276 278 280 282 284 286 288 289 290 290 291 291 291 290 290 290 291 291 291 291 291 291 291 291 291 292 292 293 294 295 296 297 298 298 299 299 299 300 300 300 301 301 302 302 302 302 301 301 301 301 301 301 301 301 302 301 301 301 301 301 301 301 301 301 301 301 302 302 302 302 302 302 301 301 300 300 300 300 300 300 301 302 303
Height
10559 10556 10554 10554 10554 10552 10550 10549 10549 10550 10549 10546 10544 10544 10544 10542 10540 10538 10536 10535 10534 10532 10530 10529 10528 10527 10525 10524 10522 10521 10520 10519 10517 10515 10513 10512 10510 10508 10507 10505 10504 10502 10500 10499 10497 10495 10494 10492 10490 10488 10486 10484 10482 10480 10478 10475 10474 10471 10469 10467 10465 10462 10460 10458 10456 10454 10452 10449 10447 10445 10444 10441 10439 10437 10435 10434 10432 10430 10428 10427 10425 10423 10421 10419 10418 10416
10552 10550 10548 10547 10547 10545 10544 10542 10542 10542 10543 10540 10538 10536 10536 10535 10533 10530 10529 10528 10527 10525 10524 10522 10521 10519 10518 10517 10515 10514 10513 10511 10509 10507 10506 10504 10502 10501 10499 10498 10497 10495 10493 10491 10489 10487 10486 10484 10482 10480 10479 10477 10474 10472 10470 10468 10466 10464 10462 10459 10457 10455 10453 10450 10448 10446 10444 10442 10440 10437 10435 10434 10431 10429 10427 10426 10424 10422 10420 10419 10417 10415 10414 10412 10410 10409
10544 10543 10541 10539 10539 10539 10537 10535 10534 10535 10535 10534 10532 10530 10529 10527 10525 10523 10521 10520 10519 10518 10517 10515 10514 10512 10510 10509 10507 10507 10505 10504 10502 10500 10499 10497 10495 10494 10492 10491 10489 10487 10485 10484 10482 10480 10479 10477 10475 10473 10471 10469 10467 10465 10462 10460 10459 10456 10454 10452 10450 10447 10445 10443 10440 10438 10436 10434 10432 10430 10427 10425 10424 10422 10420 10419 10417 10415 10414 10412 10410 10409 10407 10405 10404 10402
10536 10535 10534 10531 10530 10530 10530 10529 10527 10527 10527 10526 10525 10523 10521 10520 10518 10516 10514 10513 10512 10511 10509 10508 10507 10505 10504 10501 10500 10499 10498 10497 10495 10493 10491 10490 10489 10487 10485 10484 10482 10480 10479 10477 10475 10473 10472 10470 10468 10466 10464 10462 10460 10457 10455 10453 10451 10449 10447 10445 10442 10440 10437 10435 10433 10431 10429 10426 10424 10422 10420 10418 10416 10414 10412 10411 10409 10407 10406 10404 10402 10401 10399 10398 10397 10395
10526 10527 10525 10524 10523 10522 10521 10520 10520 10520 10519 10518 10517 10515 10514 10512 10510 10509 10507 10506 10505 10504 10502 10500 10499 10498 10496 10494 10492 10491 10490 10489 10487 10486 10484 10483 10482 10480 10479 10477 10475 10473 10471 10469 10468 10466 10465 10463 10461 10459 10457 10454 10452 10450 10448 10446 10444 10442 10440 10437 10435 10432 10430 10428 10425 10424 10421 10419 10417 10415 10412 10410 10409 10407 10405 10404 10402 10400 10399 10397 10395 10394 10392 10391 10389 10388
10517 10517 10517 10516 10515 10514 10512 10512 10512 10512 10511 10510 10508 10507 10505 10505 10503 10502 10500 10499 10497 10496 10495 10493 10491 10490 10489 10487 10485 10484 10483 10482 10480 10479 10477 10476 10475 10473 10472 10470 10468 10466 10464 10462 10461 10459 10457 10455 10454 10452 10449 10447 10445 10443 10440 10439 10437 10434 10432 10430 10427 10425 10423 10420 10418 10416 10414 10412 10409 10407 10405 10404 10402 10400 10398 10396 10395 10393 10391 10390 10388 10387 10385 10384 10382 10381
10507 10508 10509 10508 10507 10505 10504 10505 10504 10504 10503 10502 10500 10498 10497 10497 10496 10495 10494 10491 10490 10489 10487 10485 10484 10482 10481 10480 10479 10477 10476 10475 10474 10472 10470 10469 10468 10466 10464 10462 10460 10459 10457 10455 10454 10452 10450 10449 10446 10444 10442 10440 10438 10435 10434 10432 10429 10427 10425 10422 10420 10418 10415 10413 10410 10409 10406 10404 10402 10400 10398 10396 10394 10392 10391 10389 10387 10385 10384 10382 10381 10379 10378 10377 10375 10374
10499 10499 10499 10499 10499 10498 10497 10496 10496 10495 10495 10494 10492 10490 10489 10488 10488 10487 10486 10484 10482 10480 10479 10477 10475 10474 10472 10472 10472 10470 10469 10467 10466 10465 10464 10462 10460 10459 10457 10455 10454 10452 10450 10449 10447 10445 10443 10441 10439 10437 10435 10432 10430 10429 10426 10424 10422 10420 10417 10415 10413 10410 10408 10405 10404 10401 10399 10397 10395 10392 10390 10389 10387 10385 10384 10382 10380 10378 10377 10375 10374 10372 10371 10369 10368 10367
10491 10490 10489 10489 10490 10490 10490 10488 10486 10485 10486 10486 10485 10482 10480 10480 10479 10478 10477 10476 10475 10473 10472 10470 10467 10465 10463 10463 10464 10464 10462 10460 10459 10458 10457 10455 10453 10451 10450 10448 10447 10445 10443 10442 10440 10437 10435 10434 10431 10429 10427 10425 10423 10421 10419 10417 10414 10412 10410 10407 10405 10403 10400 10398 10395 10394 10392 10389 10387 10385 10384 10382 10380 10378 10376 10374 10372 10371 10369 10368 10367 10365 10364 10362 10361 10360
10482 10482 10481 10481 10481 10482 10482 10480 10477 10475 10476 10477 10477 10475 10474 10473 10472 10470 10468 10466 10465 10464 10464 10463 10460 10457 10455 10454 10454 10455 10455 10454 10452 10450 10449 10448 10446 10444 10442 10441 10439 10438 10436 10434 10432 10430 10428 10426 10424 10422 10420 10418 10415 10414 10411 10409 10407 10404 10402 10400 10397 10395 10392 10390 10388 10386 10384 10382 10380 10378 10376 10374 10372 10370 10369 10367 10365 10364 10362 10360 10359 10358 10357 10355 10354 10352
10472 10472 10473 10474 10473 10472 10472 10471 10469 10468 10467 10469 10468 10467 10465 10465 10464 10464 10461 10457 10454 10454 10455 10454 10452 10450 10448 10446 10445 10445 10446 10446 10445 10443 10441 10440 10439 10437 10436 10434 10432 10430 10429 10427 10424 10422 10420 10419 10416 10414 10412 10410 10408 10405 10404 10401 10399 10397 10394 10392 10389 10387 10385 10382 10380 10379 10376 10374 10372 10370 10369 10367 10365 10363 10361 10360 10358 10357 10355 10354 10352 10350 10349 10348 10347 10345
10463 10463 10464 10465 10464 10464 10462 10462 10461 10460 10460 10460 10459 10458 10456 10455 10455 10456 10455 10450 10446 10444 10445 10444 10443 10442 10440 10440 10439 10438 10437 10437 10436 10435 10434 10432 10431 10430 10429 10427 10425 10424 10421 10419 10417 10414 10412 10411 10409 10407 10404 10402 10400 10398 10395 10394 10391 10389 10386 10384 10381 10379 10377 10375 10373 10371 10369 10367 10365 10363 10361 10359 10357 10355 10354 10352 10350 10349 10347 10346 10345 10344 10342 10341 10340 10339
10453 10454 10455 10455 10455 10454 10453 10453 10452 10452 10451 10450 10450 10449 10447 10446 10445 10446 10445 10442 10439 10436 10436 10435 10434 10432 10431 10432 10433 10432 10430 10428 10427 10426 10425 10424 10422 10422 10422 10420 10418 10415 10414 10412 10409 10406 10404 10404 10402 10399 10396 10395 10392 10390 10388 10385 10384 10381 10378 10376 10374 10371 10369 10367 10365 10364 10361 10359 10357 10355 10354 10352 10350 10348 10347 10345 10343 10342 10340 10339 10337 10336 10335 10334 10333 10332
10443 10444 10445 10445 10444 10443 10444 10444 10444 10444 10442 10441 10441 10441 10440 10439 10437 10437 10435 10433 10430 10429 10428 10429 10426 10424 10422 10422 10424 10425 10424 10421 10419 10417 10416 10414 10414 10414 10414 10413 10410 10407 10405 10404 10401 10397 10395 10395 10394 10391 10389 10387 10385 10383 10380 10379 10376 10374 10371 10369 10366 10364 10362 10360 10358 10356 10354 10352 10350 10348 10346 10344 10342 10340 10339 10337 10336 10334 10333 10332 10330 10329 10328 10327 10326 10325
10434 10434 10435 10434 10433 10432 10434 10435 10435 10434 10432 10432 10432 10432 10432 10430 10428 10427 10426 10425 10422 10420 10420 10420 10419 10415 10413 10414 10415 10417 10416 10414 10412 10410 10408 10405 10404 10404 10405 10405 10402 10399 10395 10394 10392 10389 10387 10386 10385 10383 10380 10379 10377 10375 10373 10370 10369 10366 10364 10362 10359 10357 10355 10353 10351 10349 10347 10344 10342 10340 10339 10337 10335 10333 10332 10330 10329 10327 10326 10325 10324 10322 10321 10320 10319 10318
10425 10425 10425 10424 10422 10422 10423 10425 10425 10425 10423 10422 10422 10423 10423 10421 10419 10417 10417 10417 10415 10414 10413 10412 10410 10407 10404 10404 10405 10408 10410 10409 10405 10402 10400 10397 10395 10395 10396 10397 10395 10390 10386 10385 10383 10381 10379 10377 10376 10374 10372 10370 10369 10367 10365 10363 10360 10359 10357 10354 10352 10350 10348 10346 10344 10342 10339 10337 10335 10334 10332 10330 10328 10326 10324 10323 10321 10320 10319 10317 10317 10315 10314 10314 10312 10311
10419 10418 10417 10415 10414 10413 10414 10414 10415 10415 10414 10413 10413 10413 10413 10412 10410 10410 10409 10408 10407 10405 10405 10404 10402 10400 10397 10394 10394 10397 10401 10402 10400 10396 10392 10390 10387 10386 10387 10389 10387 10382 10377 10375 10374 10372 10370 10369 10367 10365 10364 10362 10360 10359 10357 10355 10353 10351 10349 10347 10345 10344 10341 10339 10337 10334 10332 10330 10329 10326 10324 10322 10320 10319 10317 10315 10314 10313 10312 10311 10310 10309 10308 10307 10305 10305
10411 10410 10409 10407 10406 10405 10404 10405 10406 10406 10405 10404 10404 10404 10403 10402 10402 10402 10400 10400 10399 10397 10397 10395 10394 10393 10390 10388 10385 10386 10390 10394 10394 10389 10385 10382 10379 10377 10378 10379 10378 10374 10369 10367 10365 10364 10362 10360 10358 10356 10355 10353 10352 10350 10349 10347 10345 10344 10342 10340 10338 10336 10334 10332 10330 10327 10325 10324 10322 10319 10317 10315 10314 10312 10310 10309 10307 10306 10305 10304 10303 10302 10301 10300 10299 10298
10402 10401 10400 10400 10399 10397 10396 10397 10397 10397 10396 10395 10395 10394 10394 10394 10393 10392 10392 10392 10390 10389 10389 10388 10386 10385 10384 10382 10379 10379 10380 10384 10385 10382 10378 10375 10372 10370 10369 10370 10369 10365 10360 10358 10356 10355 10354 10352 10349 10348 10347 10345 10344 10342 10340 10339 10338 10336 10334 10333 10331 10329 10327 10325 10323 10321 10319 10317 10315 10312 10310 10309 10307 10305 10304 10302 10300 10300 10299 10297 10297 10295 10294 10294 10292 10291
10393 10392 10392 10392 10391 10390 10389 10387 10387 10387 10388 10388 10387 10386 10385 10385 10384 10384 10384 10383 10382 10382 10381 10380 10379 10377 10376 10375 10373 10372 10372 10375 10375 10374 10370 10368 10365 10363 10361 10362 10360 10356 10352 10349 10347 10347 10345 10343 10340 10339 10338 10337 10335 10334 10333 10332 10330 10329 10327 10325 10324 10322 10320 10318 10316 10314 10312 10310 10308 10305 10304 10302 10300 10299 10297 10295 10294 10294 10292 10291 10290 10289 10288 10287 10285 10284
10384 10382 10382 10382 10382 10382 10381 10378 10377 10378 10380 10380 10379 10378 10377 10375 10375 10375 10375 10374 10374 10374 10374 10372 10371 10370 10369 10368 10366 10364 10364 10367 10367 10365 10362 10361 10358 10355 10354 10354 10352 10348 10344 10340 10339 10339 10337 10335 10332 10330 10329 10328 10327 10326 10325 10324 10323 10321 10319 10318 10316 10314 10313 10311 10309 10307 10305 10303 10301 10299 10297 10295 10294 10292 10291 10290 10289 10287 10286 10285 10284 10283 10282 10280 10279 10277
10375 10373 10372 10372 10374 10374 10372 10370 10369 10370 10371 10372 10371 10370 10368 10367 10367 10367 10367 10366 10366 10366 10365 10365 10364 10362 10362 10360 10359 10357 10357 10359 10359 10358 10356 10354 10350 10347 10345 10346 10344 10340 10335 10332 10331 10330 10329 10327 10324 10322 10320 10320 10319 10319 10317 10317 10315 10314 10312 10310 10309 10307 10305 10304 10302 10300 10298 10296 10294 10292 10291 10289 10288 10287 10285 10284 10283 10282 10280 10279 10278 10277 10275 10274 10272 10270
10366 10364 10364 10364 10364 10364 10364 10362 10362 10362 10362 10363 10363 10362 10360 10360 10360 10360 10359 10359 10359 10359 10358 10357 10355 10355 10354 10352 10350 10349 10349 10350 10351 10351 10350 10348 10344 10340 10338 10338 10336 10332 10328 10325 10324 10323 10320 10318 10315 10314 10313 10312 10312 10310 10310 10309 10307 10306 10305 10303 10302 10300 10298 10297 10295 10293 10291 10290 10288 10287 10285 10284 10282 10280 10279 10278 10277 10275 10274 10273 10272 10270 10269 10267 10265 10264
10357 10356 10355 10355 10355 10355 10355 10354 10354 10354 10354 10354 10354 10354 10353 10353 10353 10352 10352 10352 10352 10351 10350 10349 10348 10346 10344 10344 10343 10342 10341 10342 10344 10344 10344 10341 10337 10334 10331 10330 10328 10324 10320 10319 10317 10316 10313 10310 10307 10306 10305 10305 10304 10303 10302 10301 10300 10299 10297 10295 10294 10292 10291 10290 10288 10287 10285 10284 10282 10280 10279 10277 10276 10275 10273 10272 10270 10269 10267 10266 10265 10263 10262 10260 10259 10257
10348 10347 10347 10347 10347 10347 10347 10346 10345 10345 10345 10345 10345 10345 10345 10345 10345 10345 10345 10344 10344 10344 10342 10342 10340 10338 10335 10335 10335 10334 10332 10334 10336 10337 10336 10334 10330 10327 10324 10322 10320 10318 10314 10312 10310 10309 10306 10302 10300 10299 10298 10297 10297 10295 10295 10294 10292 10291 10289 10288 10287 10285 10284 10283 10282 10280 10279 10277 10276 10275 10273 10272 10270 10269 10267 10265 10264 10262 10261 10259 10258 10257 10255 10254 10252 10250
10339 10339 10339 10339 10339 10339 10338 10338 10337 10337 10337 10337 10337 10338 10338 10338 10338 10337 10337 10336 10335 10335 10335 10334 10332 10329 10328 10328 10327 10325 10324 10325 10328 10329 10329 10327 10323 10319 10316 10315 10314 10312 10308 10305 10304 10302 10299 10296 10294 10292 10291 10290 10289 10288 10287 10285 10285 10284 10282 10281 10280 10279 10278 10277 10275 10274 10273 10271 10270 10269 10267 10265 10264 10262 10261 10259 10258 10256 10255 10253 10252 10250 10249 10247 10245 10243
10330 10330 10330 10330 10330 10330 10330 10330 10330 10330 10330 10330 10330 10330 10330 10331 10330 10329 10328 10327 10327 10328 10328 10325 10324 10322 10320 10320 10319 10317 10317 10318 10319 10320 10321 10320 10317 10312 10309 10307 10307 10305 10302 10300 10298 10295 10293 10290 10287 10285 10284 10282 10281 10280 10279 10279 10277 10276 10275 10274 10274 10272 10272 10270 10270 10268 10267 10265 10264 10262 10260 10259 10257 10256 10254 10253 10251 10250 10248 10246 10245 10243 10242 10240 10238 10236
10322 10322 10322 10322 10322 10322 10322 10322 10322 10322 10322 10322 10323 10323 10324 10324 10323 10321 10319 10318 10319 10320 10319 10317 10315 10315 10314 10312 10310 10310 10310 10310 10311 10312 10314 10313 10309 10305 10302 10300 10300 10299 10297 10295 10292 10290 10287 10284 10280 10279 10277 10275 10274 10272 10272 10271 10270 10270 10269 10268 10267 10266 10265 10264 10264 10262 10260 10259 10257 10255 10254 10252 10251 10249 10248 10246 10244 10242 10240 10239 10237 10235 10234 10232 10230 10228
10314 10314 10314 10314 10314 10315 10315 10315 10315 10315 10315 10315 10315 10315 10315 10315 10315 10313 10311 10311 10312 10312 10310 10309 10309 10308 10307 10305 10304 10302 10302 10302 10304 10306 10307 10305 10300 10297 10295 10295 10294 10293 10292 10290 10287 10284 10280 10277 10274 10272 10270 10268 10267 10265 10265 10265 10264 10264 10263 10262 10261 10260 10259 10258 10257 10255 10254 10252 10250 10249 10247 10245 10244 10242 10240 10239 10237 10234 10232 10230 10229 10227 10226 10224 10222 10220
10307 10307 10307 10307 10308 10308 10308 10308 10308 10308 10308 10308 10308 10307 10307 10307 10307 10306 10304 10304 10305 10304 10302 10301 10300 10300 10300 10298 10297 10295 10294 10295 10297 10300 10300 10297 10293 10290 10289 10289 10287 10287 10287 10284 10282 10278 10274 10271 10268 10265 10264 10262 10260 10259 10259 10259 10259 10258 10257 10256 10255 10254 10253 10252 10250 10249 10247 10245 10244 10242 10240 10239 10237 10235 10233 10230 10229 10226 10224 10222 10220 10219 10217 10216 10214 10212
10300 10300 10301 10301 10301 10301 10301 10300 10300 10300 10300 10300 10300 10300 10300 10300 10299 10299 10298 10298 10297 10296 10295 10294 10294 10293 10293 10292 10290 10288 10287 10288 10291 10294 10293 10290 10286 10284 10284 10282 10281 10280 10280 10279 10277 10273 10269 10266 10263 10260 10258 10256 10255 10254 10253 10253 10252 10252 10251 10250 10249 10247 10246 10245 10244 10242 10240 10238 10236 10234 10232 10230 10229 10227 10224 10222 10220 10217 10215 10213 10212 10210 10209 10207 10205 10204
10294 10294 10294 10294 10294 10294 10294 10294 10294 10294 10294 10293 10293 10293 10293 10293 10292 10292 10292 10291 10290 10289 10289 10287 10287 10286 10286 10285 10284 10282 10281 10282 10285 10287 10287 10284 10280 10279 10277 10276 10274 10274 10274 10273 10271 10269 10265 10262 10259 10256 10253 10251 10249 10248 10247 10247 10246 10245 10245 10244 10242 10240 10239 10238 10236 10234 10232 10230 10228 10225 10224 10222 10220 10218 10215 10213 10211 10209 10206 10204 10202 10200 10199 10197 10196 10195
10287 10287 10287 10287 10287 10287 10287 10287 10287 10287 10287 10287 10287 10286 10286 10286 10285 10285 10285 10284 10284 10283 10282 10281 10280 10280 10279 10279 10278 10277 10277 10278 10279 10280 10280 10277 10275 10272 10271 10270 10269 10267 10267 10266 10265 10264 10262 10259 10256 10253 10250 10247 10244 10242 10240 10240 10239 10239 10238 10237 10235 10234 10232 10230 10229 10227 10224 10222 10220 10217 10215 10213 10211 10209 10207 10204 10202 10199 10197 10194 10192 10190 10189 10187 10186 10185
10280 10280 10280 10280 10280 10280 10280 10281 10281 10281 10280 10280 10280 10280 10280 10279 10279 10279 10278 10278 10277 10277 10276 10275 10275 10274 10274 10273 10272 10272 10272 10273 10274 10274 10274 10271 10269 10267 10265 10264 10262 10262 10261 10260 10260 10259 10257 10255 10253 10250 10247 10244 10241 10238 10236 10234 10234 10233 10232 10231 10229 10227 10225 10224 10222 10219 10217 10214 10212 10209 10207 10205 10202 10200 10198 10195 10192 10190 10187 10184 10182 10180 10178 10177 10176 10175
10274 10274 10274 10275 10275 10275 10275 10275 10275 10275 10274 10274 10274 10274 10274 10273 10273 10272 10272 10272 10272 10271 10271 10270 10270 10269 10269 10268 10267 10267 10267 10268 10269 10269 10267 10265 10263 10261 10260 10259 10257 10257 10256 10255 10255 10254 10252 10251 10249 10247 10244 10241 10238 10235 10233 10230 10229 10227 10226 10225 10224 10221 10219 10217 10215 10212 10210 10207 10204 10202 10199 10197 10195 10192 10190 10187 10184 10181 10179 10175 10173 10170 10169 10167 10166 10165
10269 10269 10269 10270 10270 10270 10269 10269 10269 10269 10269 10268 10268 10268 10267 10267 10267 10267 10267 10267 10267 10266 10266 10265 10265 10264 10264 10264 10263 10262 10262 10262 10262 10262 10261 10260 10259 10257 10255 10254 10253 10253 10252 10250 10250 10249 10247 10245 10244 10243 10241 10238 10235 10232 10230 10227 10225 10224 10222 10220 10219 10216 10214 10211 10209 10206 10204 10200 10197 10195 10192 10190 10188 10185 10183 10180 10177 10174 10171 10168 10165 10162 10160 10159 10157 10156
10264 10264 10264 10265 10265 10264 10264 10264 10264 10263 10263 10263 10263 10263 10262 10262 10262 10262 10262 10262 10262 10262 10261 10261 10260 10260 10259 10259 10259 10257 10257 10257 10257 10257 10256 10255 10254 10253 10252 10250 10249 10249 10247 10246 10245 10244 10242 10240 10239 10237 10236 10234 10232 10229 10226 10224 10222 10220 10217 10216 10214 10211 10208 10205 10203 10200 10197 10194 10192 10189 10187 10184 10182 10179 10177 10174 10171 10167 10164 10161 10158 10155 10152 10150 10149 10148
10259 10259 10259 10260 10259 10259 10259 10259 10259 10259 10259 10259 10259 10259 10259 10258 10258 10258 10258 10258 10258 10257 10257 10256 10255 10255 10255 10254 10254 10253 10252 10252 10252 10252 10252 10251 10250 10249 10248 10246 10245 10244 10243 10242 10240 10239 10237 10236 10234 10232 10231 10229 10227 10225 10222 10220 10218 10216 10214 10212 10209 10206 10202 10199 10197 10194 10191 10188 10185 10183 10181 10179 10177 10174 10171 10168 10165 10162 10158 10155 10152 10149 10146 10144 10142 10140
10255 10255 10255 10255 10255 10255 10254 10254 10254 10254 10254 10254 10254 10254 10254 10254 10254 10254 10254 10254 10254 10254 10252 10252 10251 10251 10250 10250 10250 10249 10249 10249 10248 10248 10248 10247 10247 10245 10244 10242 10240 10239 10238 10237 10235 10234 10233 10231 10230 10228 10226 10224 10222 10220 10218 10216 10214 10212 10210 10209 10205 10201 10197 10194 10190 10187 10185 10182 10180 10177 10175 10174 10172 10169 10165 10163 10159 10156 10152 10149 10145 10142 10140 10137 10135 10134
10251 10251 10251 10251 10251 10251 10250 10250 10251 10251 10251 10251 10251 10251 10251 10251 10251 10250 10250 10250 10250 10249 10249 10248 10247 10247 10247 10247 10247 10247 10246 10245 10245 10244 10244 10243 10242 10241 10240 10239 10237 10235 10234 10232 10230 10229 10228 10226 10225 10224 10222 10220 10219 10216 10214 10212 10210 10209 10207 10205 10201 10197 10193 10189 10185 10182 10179 10177 10175 10172 10170 10169 10167 10164 10160 10157 10154 10150 10147 10144 10140 10137 10134 10132 10129 10127
10247 10247 10247 10247 10247 10247 10247 10248 10248 10248 10248 10248 10248 10248 10248 10248 10247 10247 10247 10246 10246 10245 10245 10244 10244 10244 10244 10244 10244 10244 10243 10242 10242 10240 10240 10239 10238 10237 10235 10234 10232 10230 10229 10227 10225 10224 10223 10221 10219 10218 10217 10216 10215 10212 10210 10208 10206 10205 10203 10200 10197 10193 10189 10184 10180 10177 10174 10172 10170 10168 10166 10164 10162 10159 10156 10152 10149 10145 10142 10138 10134 10131 10128 10126 10124 10122
10244 10244 10244 10245 10245 10245 10245 10245 10245 10245 10245 10245 10245 10245 10245 10244 10244 10244 10243 10243 10243 10242 10242 10242 10241 10240 10240 10240 10240 10240 10240 10239 10238 10237 10236 10235 10234 10232 10231 10230 10228 10227 10225 10222 10220 10219 10217 10216 10214 10213 10212 10211 10210 10208 10205 10204 10202 10200 10198 10195 10192 10189 10184 10179 10175 10173 10170 10167 10165 10163 10162 10159 10157 10154 10151 10147 10143 10139 10135 10132 10129 10125 10122 10120 10118 10116
10242 10242 10242 10242 10242 10242 10242 10242 10242 10242 10242 10242 10242 10242 10241 10241 10240 10240 10240 10240 10240 10240 10239 10239 10239 10238 10237 10237 10237 10237 10236 10235 10235 10234 10232 10232 10230 10229 10227 10225 10224 10222 10220 10219 10216 10214 10212 10211 10209 10207 10206 10206 10205 10204 10201 10199 10197 10195 10192 10190 10187 10184 10179 10174 10170 10168 10165 10162 10160 10158 10156 10154 10152 10149 10145 10142 10137 10133 10129 10125 10122 10119 10116 10114 10111 10109
10239 10239 10239 10240 10240 10240 10240 10240 10240 10240 10239 10239 10239 10239 10239 10239 10239 10238 10238 10238 10238 10237 10237 10236 10235 10235 10234 10233 10233 10232 10232 10232 10231 10230 10229 10228 10227 10225 10224 10222 10220 10219 10217 10215 10212 10210 10207 10205 10204 10202 10202 10200 10199 10198 10196 10195 10192 10190 10187 10184 10181 10177 10173 10169 10165 10163 10160 10157 10155 10153 10150 10149 10147 10144 10140 10137 10132 10127 10123 10119 10115 10112 10109 10107 10105 10103
10237 10237 10237 10237 10237 10237 10237 10237 10237 10237 10237 10237 10237 10237 10236 10236 10236 10236 10236 10235 10235 10235 10234 10234 10232 10232 10230 10230 10229 10229 10228 10227 10227 10226 10225 10225 10224 10222 10220 10218 10216 10214 10212 10210 10209 10206 10204 10201 10199 10197 10196 10195 10194 10192 10190 10189 10187 10185 10182 10178 10175 10171 10167 10164 10161 10158 10155 10152 10150 10147 10145 10144 10142 10139 10135 10131 10127 10122 10117 10113 10109 10105 10103 10100 10099 10096
10235 10235 10235 10235 10235 10235 10235 10235 10235 10235 10235 10235 10235 10235 10234 10234 10234 10234 10234 10233 10232 10232 10231 10230 10229 10229 10227 10227 10225 10225 10224 10223 10222 10222 10221 10220 10219 10218 10216 10214 10212 10210 10208 10205 10204 10202 10200 10197 10194 10192 10190 10189 10188 10187 10185 10184 10182 10179 10176 10173 10169 10165 10161 10158 10155 10153 10150 10148 10145 10142 10140 10139 10136 10134 10130 10126 10122 10117 10112 10107 10102 10099 10095 10094 10092 10090
10232 10232 10232 10232 10232 10232 10232 10233 10233 10233 10233 10233 10233 10232 10232 10232 10232 10231 10230 10230 10230 10229 10228 10227 10227 10225 10224 10224 10222 10221 10220 10219 10217 10217 10216 10215 10214 10213 10212 10210 10208 10206 10204 10201 10199 10197 10194 10192 10190 10188 10186 10184 10182 10180 10179 10178 10176 10174 10170 10167 10164 10160 10156 10152 10150 10147 10145 10143 10140 10137 10135 10134 10131 10128 10125 10122 10117 10112 10106 10100 10096 10092 10089 10087 10085 10083
10230 10230 10230 10230 10230 10230 10231 10231 10231 10231 10231 10231 10230 10230 10230 10230 10229 10229 10228 10227 10227 10226 10225 10224 10224 10222 10221 10220 10219 10218 10216 10214 10213 10212 10210 10210 10209 10207 10206 10204 10202 10200 10199 10196 10194 10192 10189 10187 10184 10182 10180 10179 10177 10175 10174 10172 10170 10168 10165 10162 10159 10155 10151 10148 10145 10142 10139 10137 10134 10132 10130 10128 10125 10122 10119 10116 10112 10107 10101 10095 10090 10085 10082 10079 10078 10076
10228 10229 10229 10229 10229 10229 10229 10229 10229 10229 10229 10229 10229 10229 10228 10227 10227 10227 10225 10225 10224 10224 10222 10221 10220 10219 10218 10217 10215 10214 10212 10210 10209 10208 10207 10205 10204 10202 10200 10199 10196 10194 10192 10190 10188 10186 10184 10181 10179 10177 10175 10174 10172 10170 10169 10167 10165 10162 10159 10156 10152 10149 10146 10143 10140 10137 10134 10131 10129 10126 10124 10122 10119 10117 10114 10110 10105 10101 10096 10090 10084 10079 10075 10072 10070 10069
10226 10227 10227 10227 10227 10227 10227 10227 10227 10227 10227 10227 10227 10226 10226 10225 10225 10224 10224 10222 10222 10220 10220 10219 10217 10215 10214 10212 10211 10210 10209 10207 10205 10204 10203 10201 10200 10197 10195 10193 10190 10189 10186 10184 10182 10180 10177 10174 10171 10169 10169 10168 10167 10165 10162 10161 10159 10157 10154 10150 10147 10144 10140 10138 10135 10132 10129 10125 10122 10120 10118 10115 10112 10110 10107 10104 10099 10095 10091 10086 10080 10074 10070 10067 10064 10063
10225 10225 10225 10225 10225 10225 10225 10225 10225 10225 10225 10225 10224 10224 10224 10223 10223 10222 10221 10220 10219 10218 10217 10215 10214 10212 10210 10209 10207 10206 10205 10204 10202 10200 10199 10197 10195 10193 10190 10188 10186 10184 10181 10179 10176 10174 10171 10168 10164 10161 10159 10160 10160 10159 10157 10155 10154 10151 10148 10144 10141 10138 10135 10132 10130 10127 10123 10120 10117 10114 10112 10109 10106 10103 10100 10096 10092 10089 10085 10081 10075 10070 10065 10062 10059 10057